When you browse on this site, cookies collect data to enhance your experience and personalize the content and advertising you see.
Visit our Privacy Policy to learn more. By continuing to use the site, you agree to this use of cookies and data.
  • In Belgium
  • List of Countries
  • For 7 days
  • Water Temperature
  • Satellite Maps
  • Weather Map
  • Weather Widgets
  • user-avatar
    Login

    Hourly Weather Tabarka

    Today, 16 December, Sunday

    Time Temperature Precipitation Wind Pressure Humidity
    00:00 +7°C° 0.1 mm 5 mps 715 mmHg 87%
    01:00 +7°C° 0 mm 5 mps 715 mmHg 87%
    02:00 +7°C° 0 mm 4 mps 715 mmHg 87%
    03:00 +7°C° 0 mm 4 mps 715 mmHg 86%
    04:00 +6°C° 0 mm 4 mps 715 mmHg 85%
    05:00 +6°C° 0 mm 4 mps 715 mmHg 84%
    06:00 +6°C° 0 mm 4 mps 715 mmHg 83%
    07:00 +7°C° 0 mm 3 mps 715 mmHg 81%
    08:00 +8°C° 0 mm 3 mps 715 mmHg 75%
    09:00 +10°C° 0 mm 3 mps 715 mmHg 69%
    10:00 +11°C° 0 mm 3 mps 715 mmHg 62%
    11:00 +13°C° 0 mm 3 mps 715 mmHg 57%
    12:00 +15°C° 0 mm 2 mps 716 mmHg 52%
    13:00 +17°C° 0 mm 2 mps 716 mmHg 47%
    14:00 +17°C° 0 mm 2 mps 715 mmHg 48%
    15:00 +19°C° 0 mm 1 mps 715 mmHg 50%
    16:00 +19°C° 0 mm 1 mps 715 mmHg 51%
    17:00 +16°C° 0 mm 1 mps 715 mmHg 54%
    18:00 +15°C° 0 mm 1 mps 715 mmHg 57%
    19:00 +13°C° 0 mm 1 mps 715 mmHg 60%
    20:00 +13°C° 0 mm 1 mps 715 mmHg 60%
    21:00 +13°C° 0 mm 2 mps 715 mmHg 59%
    22:00 +13°C° 0 mm 2 mps 715 mmHg 59%
    23:00 +12°C° 0 mm 2 mps 715 mmHg 60%

    Tomorrow, 17 December, Monday

    Time Temperature Precipitation Wind Pressure Humidity
    00:00 +12°C° 0 mm 2 mps 715 mmHg 61%
    01:00 +12°C° 0 mm 2 mps 715 mmHg 62%
    02:00 +11°C° 0 mm 3 mps 714 mmHg 63%
    03:00 +10°C° 0 mm 3 mps 714 mmHg 64%
    04:00 +10°C° 0 mm 3 mps 714 mmHg 65%
    05:00 +10°C° 0 mm 4 mps 714 mmHg 67%
    06:00 +9°C° 0 mm 5 mps 715 mmHg 70%
    07:00 +9°C° 0 mm 6 mps 715 mmHg 72%
    08:00 +10°C° 0.1 mm 7 mps 715 mmHg 71%
    09:00 +11°C° 0.1 mm 8 mps 716 mmHg 71%
    10:00 +12°C° 0.1 mm 9 mps 717 mmHg 70%
    11:00 +12°C° 0.1 mm 9 mps 717 mmHg 67%
    12:00 +12°C° 0.1 mm 10 mps 717 mmHg 63%
    13:00 +13°C° 0.1 mm 10 mps 717 mmHg 60%
    14:00 +12°C° 0 mm 9 mps 717 mmHg 62%
    15:00 +11°C° 0 mm 9 mps 717 mmHg 65%
    16:00 +10°C° 0 mm 8 mps 717 mmHg 67%
    17:00 +9°C° 0 mm 7 mps 717 mmHg 72%
    18:00 +8°C° 0 mm 6 mps 718 mmHg 76%
    19:00 +7°C° 0 mm 5 mps 718 mmHg 80%
    20:00 +7°C° 0 mm 5 mps 718 mmHg 81%
    21:00 +7°C° 0 mm 5 mps 719 mmHg 82%
    22:00 +7°C° 0 mm 5 mps 719 mmHg 83%
    23:00 +7°C° 0 mm 5 mps 719 mmHg 83%

    Day after tomorrow, 18 December, Tuesday

    Time Temperature Precipitation Wind Pressure Humidity
    00:00 +6°C° 0 mm 5 mps 719 mmHg 84%
    01:00 +6°C° 0 mm 5 mps 719 mmHg 85%
    02:00 +6°C° 0 mm 4 mps 719 mmHg 86%
    03:00 +6°C° 0 mm 4 mps 719 mmHg 87%
    04:00 +5°C° 0 mm 4 mps 719 mmHg 87%
    05:00 +5°C° 0 mm 4 mps 719 mmHg 87%
    06:00 +5°C° 0 mm 3 mps 719 mmHg 87%
    07:00 +5°C° 0 mm 3 mps 719 mmHg 87%
    08:00 +7°C° 0 mm 3 mps 719 mmHg 81%
    09:00 +8°C° 0 mm 2 mps 719 mmHg 75%
    10:00 +10°C° 0 mm 2 mps 720 mmHg 69%
    11:00 +12°C° 0 mm 2 mps 719 mmHg 64%
    12:00 +13°C° 0 mm 2 mps 719 mmHg 59%
    13:00 +14°C° 0 mm 1 mps 719 mmHg 54%
    14:00 +14°C° 0 mm 1 mps 719 mmHg 53%
    15:00 +14°C° 0 mm 1 mps 718 mmHg 52%
    16:00 +14°C° 0 mm 1 mps 718 mmHg 51%
    17:00 +12°C° 0 mm 1 mps 718 mmHg 56%
    18:00 +10°C° 0 mm 2 mps 718 mmHg 61%
    19:00 +8°C° 0 mm 2 mps 718 mmHg 66%
    20:00 +8°C° 0 mm 2 mps 718 mmHg 67%
    21:00 +8°C° 0 mm 2 mps 718 mmHg 67%
    22:00 +7°C° 0 mm 2 mps 717 mmHg 68%
    23:00 +7°C° 0 mm 2 mps 717 mmHg 67%

    19 December, Wednesday

    Time Temperature Precipitation Wind Pressure Humidity
    00:00 +7°C° 0 mm 2 mps 717 mmHg 67%
    01:00 +6°C° 0 mm 2 mps 717 mmHg 66%
    02:00 +6°C° 0 mm 2 mps 716 mmHg 66%
    03:00 +6°C° 0 mm 2 mps 716 mmHg 66%
    04:00 +6°C° 0 mm 2 mps 716 mmHg 66%
    05:00 +6°C° 0 mm 2 mps 716 mmHg 66%
    06:00 +6°C° 0 mm 2 mps 716 mmHg 66%
    07:00 +6°C° 0 mm 2 mps 715 mmHg 66%
    08:00 +8°C° 0 mm 2 mps 716 mmHg 61%
    09:00 +9°C° 0 mm 2 mps 716 mmHg 56%
    10:00 +12°C° 0 mm 2 mps 716 mmHg 52%
    11:00 +14°C° 0 mm 2 mps 716 mmHg 47%
    12:00 +16°C° 0 mm 2 mps 716 mmHg 42%
    13:00 +17°C° 0 mm 2 mps 715 mmHg 36%
    14:00 +18°C° 0 mm 1 mps 715 mmHg 39%
    15:00 +18°C° 0 mm 1 mps 715 mmHg 41%
    16:00 +18°C° 0 mm 1 mps 714 mmHg 43%
    17:00 +15°C° 0 mm 1 mps 714 mmHg 47%
    18:00 +13°C° 0 mm 1 mps 715 mmHg 51%
    19:00 +11°C° 0 mm 0 mps 715 mmHg 56%
    20:00 +11°C° 0 mm 1 mps 715 mmHg 57%
    21:00 +11°C° 0 mm 1 mps 715 mmHg 58%
    22:00 +11°C° 0 mm 1 mps 715 mmHg 59%
    23:00 +11°C° 0 mm 1 mps 715 mmHg 59%

    20 December, Thursday

    Time Temperature Precipitation Wind Pressure Humidity
    00:00 +10°C° 0 mm 1 mps 715 mmHg 58%
    01:00 +10°C° 0 mm 1 mps 715 mmHg 58%
    02:00 +9°C° 0 mm 2 mps 715 mmHg 58%
    03:00 +9°C° 0 mm 2 mps 715 mmHg 58%
    04:00 +9°C° 0 mm 2 mps 715 mmHg 58%
    05:00 +9°C° 0.1 mm 2 mps 715 mmHg 61%
    06:00 +9°C° 0.1 mm 3 mps 715 mmHg 63%
    07:00 +9°C° 0.1 mm 3 mps 716 mmHg 65%
    08:00 +10°C° 0 mm 4 mps 716 mmHg 66%
    09:00 +10°C° 0 mm 5 mps 717 mmHg 66%
    10:00 +12°C° 0 mm 5 mps 718 mmHg 67%
    11:00 +11°C° 0 mm 6 mps 718 mmHg 62%
    12:00 +13°C° 0 mm 6 mps 718 mmHg 57%
    13:00 +13°C° 0 mm 6 mps 718 mmHg 53%
    14:00 +13°C° 0 mm 6 mps 717 mmHg 55%
    15:00 +11°C° 0 mm 6 mps 717 mmHg 57%
    16:00 +11°C° 0 mm 6 mps 717 mmHg 59%
    17:00 +10°C° 0 mm 5 mps 718 mmHg 66%
    18:00 +9°C° 0 mm 3 mps 718 mmHg 72%
    19:00 +8°C° 0 mm 2 mps 718 mmHg 78%
    20:00 +8°C° 0 mm 2 mps 719 mmHg 79%
    21:00 +8°C° 0 mm 2 mps 719 mmHg 80%
    22:00 +7°C° 0 mm 2 mps 719 mmHg 81%
    23:00 +7°C° 0 mm 2 mps 719 mmHg 81%

    21 December, Friday

    Time Temperature Precipitation Wind Pressure Humidity
    00:00 +7°C° 0 mm 2 mps 719 mmHg 82%
    01:00 +7°C° 0 mm 2 mps 719 mmHg 82%
    02:00 +6°C° 0 mm 2 mps 719 mmHg 82%
    03:00 +6°C° 0 mm 2 mps 719 mmHg 83%
    04:00 +6°C° 0 mm 2 mps 719 mmHg 84%
    05:00 +6°C° 0 mm 2 mps 719 mmHg 84%
    06:00 +5°C° 0 mm 2 mps 719 mmHg 84%
    07:00 +5°C° 0 mm 2 mps 719 mmHg 84%
    08:00 +7°C° 0 mm 3 mps 720 mmHg 79%
    09:00 +8°C° 0 mm 3 mps 720 mmHg 73%
    10:00 +10°C° 0 mm 3 mps 721 mmHg 67%
    11:00 +11°C° 0 mm 3 mps 721 mmHg 63%
    12:00 +12°C° 0 mm 3 mps 720 mmHg 59%
    13:00 +13°C° 0 mm 4 mps 720 mmHg 54%
    14:00 +12°C° 0 mm 4 mps 720 mmHg 55%
    15:00 +12°C° 0 mm 4 mps 720 mmHg 56%
    16:00 +12°C° 0 mm 4 mps 720 mmHg 57%
    17:00 +11°C° 0 mm 3 mps 720 mmHg 64%
    18:00 +9°C° 0 mm 3 mps 720 mmHg 71%
    19:00 +8°C° 0 mm 2 mps 720 mmHg 78%
    20:00 +7°C° 0 mm 2 mps 721 mmHg 79%
    21:00 +7°C° 0 mm 2 mps 721 mmHg 80%
    22:00 +7°C° 0 mm 2 mps 721 mmHg 82%
    23:00 +7°C° 0 mm 2 mps 721 mmHg 82%
    Show more